TAM3209 SBUL-SBGR

Flight info

Callsign TAM3209
Flight time 1h 11m
Altitude 34000
Route ASTOB DCT UPONA DCT OBLUG/N0464F330 UZ42 ZARES
Aircraft A320/M-SDE3FGHIRWY/LB1

Departure

Time 2026-04-17 10:54
Airport Ten. Cel. Aviador César Bombonato Airport (SBUL)

Arrival

Time 2026-04-17 12:05
Airport São Paulo/Guarulhos–Governor André Franco Montoro International Airport (SBGR)
Time Latitude Longitude Altitude Speed Heading
2026-04-17 10:35 -18.88981 -48.23029 3101 ft 0 kts 295°
2026-04-17 10:47 -18.88984 -48.23022 3101 ft 4 kts 285°
2026-04-17 10:47 -18.88993 -48.23010 3101 ft 4 kts 175°
2026-04-17 10:48 -18.88978 -48.23014 3101 ft 3 kts 170°
2026-04-17 10:50 -18.88980 -48.23014 3101 ft 1 kts 170°
2026-04-17 10:50 -18.88999 -48.23010 3101 ft 4 kts 165°
2026-04-17 10:50 -18.89030 -48.22984 3100 ft 8 kts 128°
2026-04-17 10:51 -18.89069 -48.22925 3100 ft 10 kts 168°
2026-04-17 10:51 -18.89135 -48.22924 3105 ft 9 kts 179°
2026-04-17 10:51 -18.89187 -48.22918 3100 ft 6 kts 180°
2026-04-17 10:51 -18.89211 -48.22935 3104 ft 4 kts 259°
2026-04-17 10:52 -18.89208 -48.22947 3099 ft 0 kts 324°
2026-04-17 10:52 -18.89195 -48.22952 3100 ft 7 kts 330°
2026-04-17 10:52 -18.89172 -48.22946 3099 ft 1 kts 22°
2026-04-17 10:52 -18.89171 -48.22945 3099 ft 0 kts 22°
2026-04-17 10:53 -18.89083 -48.22907 3102 ft 46 kts 23°
2026-04-17 10:53 -18.88582 -48.22688 3101 ft 109 kts 22°
2026-04-17 10:53 -18.87718 -48.22301 3111 ft 158 kts 26°
2026-04-17 10:54 -18.86701 -48.21828 3746 ft 157 kts 24°
2026-04-17 10:54 -18.85699 -48.21383 4452 ft 155 kts 22°
2026-04-17 10:54 -18.84653 -48.20917 4801 ft 174 kts 22°
2026-04-17 10:54 -18.83476 -48.20390 5055 ft 194 kts 22°
2026-04-17 10:55 -18.82253 -48.19655 5427 ft 212 kts 45°
2026-04-17 10:55 -18.81645 -48.18177 5847 ft 235 kts 86°
2026-04-17 10:55 -18.82102 -48.16464 6240 ft 257 kts 124°
2026-04-17 10:55 -18.83525 -48.15214 6620 ft 279 kts 152°
2026-04-17 10:56 -18.85168 -48.14133 7315 ft 286 kts 135°
2026-04-17 10:56 -18.86231 -48.12372 8062 ft 288 kts 111°
2026-04-17 10:56 -18.86786 -48.10333 8873 ft 290 kts 103°
2026-04-17 10:56 -18.87180 -48.08234 9657 ft 293 kts 102°
2026-04-17 10:57 -18.87586 -48.06109 10337 ft 300 kts 104°
2026-04-17 10:57 -18.88121 -48.03894 10563 ft 322 kts 110°
2026-04-17 10:57 -18.89107 -48.01690 10703 ft 344 kts 124°
2026-04-17 10:57 -18.90659 -47.99694 10921 ft 360 kts 138°
2026-04-17 10:58 -18.92671 -47.98084 11424 ft 366 kts 150°
2026-04-17 10:58 -18.94924 -47.96807 12028 ft 369 kts 153°
2026-04-17 10:58 -18.97204 -47.95526 12645 ft 373 kts 153°
2026-04-17 10:58 -18.99470 -47.94234 13238 ft 377 kts 152°
2026-04-17 10:59 -19.01788 -47.92903 13815 ft 381 kts 152°
2026-04-17 10:59 -19.04127 -47.91556 14335 ft 385 kts 152°
2026-04-17 10:59 -19.06489 -47.90198 14834 ft 388 kts 152°
2026-04-17 10:59 -19.08871 -47.88831 15333 ft 391 kts 152°
2026-04-17 11:00 -19.11276 -47.87452 15843 ft 395 kts 152°
2026-04-17 11:00 -19.13701 -47.86065 16326 ft 398 kts 153°
2026-04-17 11:00 -19.16148 -47.84666 16790 ft 401 kts 153°
2026-04-17 11:00 -19.18612 -47.83256 17239 ft 405 kts 153°
2026-04-17 11:01 -19.21097 -47.81834 17691 ft 408 kts 153°
2026-04-17 11:01 -19.23603 -47.80398 18121 ft 411 kts 153°
2026-04-17 11:01 -19.26124 -47.78951 18508 ft 414 kts 153°
2026-04-17 11:01 -19.28663 -47.77493 18893 ft 417 kts 153°
2026-04-17 11:02 -19.31186 -47.76043 19261 ft 419 kts 153°
2026-04-17 11:02 -19.33756 -47.74568 19638 ft 422 kts 153°
2026-04-17 11:02 -19.36345 -47.73083 20015 ft 424 kts 153°
2026-04-17 11:02 -19.38946 -47.71593 20382 ft 426 kts 153°
2026-04-17 11:03 -19.41561 -47.70092 20737 ft 429 kts 153°
2026-04-17 11:03 -19.44193 -47.68580 21086 ft 431 kts 153°
2026-04-17 11:03 -19.46836 -47.67063 21432 ft 434 kts 153°
2026-04-17 11:03 -19.49494 -47.65537 21778 ft 436 kts 153°
2026-04-17 11:04 -19.52167 -47.64001 22115 ft 438 kts 153°
2026-04-17 11:04 -19.54859 -47.62454 22462 ft 441 kts 153°
2026-04-17 11:04 -19.57560 -47.60901 22795 ft 443 kts 154°
2026-04-17 11:04 -19.60239 -47.59360 23124 ft 445 kts 154°
2026-04-17 11:05 -19.62965 -47.57786 23449 ft 448 kts 154°
2026-04-17 11:05 -19.65710 -47.56201 23738 ft 450 kts 154°
2026-04-17 11:05 -19.68581 -47.54921 23986 ft 448 kts 167°
2026-04-17 11:05 -19.71647 -47.54449 24234 ft 445 kts 182°
2026-04-17 11:06 -19.74701 -47.54821 24476 ft 442 kts 197°
2026-04-17 11:06 -19.77556 -47.55999 24736 ft 440 kts 211°
2026-04-17 11:06 -19.80026 -47.57896 24988 ft 439 kts 225°
2026-04-17 11:06 -19.82007 -47.60352 25252 ft 439 kts 234°
2026-04-17 11:07 -19.83853 -47.62947 25528 ft 441 kts 234°
2026-04-17 11:07 -19.85705 -47.65551 25797 ft 442 kts 234°
2026-04-17 11:07 -19.87559 -47.68157 26079 ft 443 kts 234°
2026-04-17 11:07 -19.89418 -47.70772 26346 ft 444 kts 234°
2026-04-17 11:08 -19.91282 -47.73392 26603 ft 446 kts 234°
2026-04-17 11:08 -19.93155 -47.76026 26852 ft 447 kts 234°
2026-04-17 11:08 -19.95008 -47.78634 27085 ft 449 kts 234°
2026-04-17 11:08 -19.96888 -47.81280 27332 ft 450 kts 234°
2026-04-17 11:09 -19.98776 -47.83937 27574 ft 451 kts 234°
2026-04-17 11:09 -20.00669 -47.86602 27820 ft 452 kts 234°
2026-04-17 11:09 -20.02566 -47.89274 28062 ft 453 kts 234°
2026-04-17 11:10 -20.06354 -47.94630 28702 ft 452 kts 235°
2026-04-17 11:10 -20.08241 -47.97297 29071 ft 450 kts 235°
2026-04-17 11:10 -20.10120 -47.99950 29426 ft 449 kts 235°
2026-04-17 11:10 -20.11992 -48.02597 29790 ft 447 kts 235°
2026-04-17 11:11 -20.13859 -48.05236 30132 ft 446 kts 235°
2026-04-17 11:11 -20.15721 -48.07868 30448 ft 444 kts 235°
2026-04-17 11:11 -20.17572 -48.10486 30770 ft 442 kts 235°
2026-04-17 11:11 -20.19416 -48.13094 31104 ft 440 kts 235°
2026-04-17 11:12 -20.21253 -48.15692 31445 ft 438 kts 235°
2026-04-17 11:12 -20.23052 -48.18237 31788 ft 435 kts 235°
2026-04-17 11:12 -20.24865 -48.20807 32145 ft 433 kts 235°
2026-04-17 11:12 -20.26664 -48.23365 32499 ft 430 kts 235°
2026-04-17 11:13 -20.28452 -48.25910 32859 ft 428 kts 236°
2026-04-17 11:13 -20.30233 -48.28442 33231 ft 425 kts 235°
2026-04-17 11:13 -20.32000 -48.30953 33607 ft 422 kts 236°
2026-04-17 11:13 -20.33758 -48.33451 33911 ft 421 kts 236°
2026-04-17 11:14 -20.37262 -48.38423 33986 ft 419 kts 235°
2026-04-17 11:14 -20.40754 -48.43392 33984 ft 419 kts 236°
2026-04-17 11:15 -20.44222 -48.48333 33980 ft 418 kts 235°
2026-04-17 11:15 -20.47708 -48.53301 33981 ft 418 kts 236°
2026-04-17 11:16 -20.51190 -48.58265 33982 ft 418 kts 235°
2026-04-17 11:16 -20.54668 -48.63228 33979 ft 417 kts 235°
2026-04-17 11:17 -20.58140 -48.68192 33979 ft 417 kts 235°
2026-04-17 11:17 -20.61608 -48.73156 33983 ft 417 kts 235°
2026-04-17 11:18 -20.65129 -48.78081 33981 ft 418 kts 230°
2026-04-17 11:18 -20.69754 -48.81825 33979 ft 428 kts 210°
2026-04-17 11:19 -20.72559 -48.82945 33972 ft 435 kts 199°
2026-04-17 11:19 -20.75559 -48.83527 33974 ft 440 kts 194°
2026-04-17 11:19 -20.81612 -48.84476 33970 ft 440 kts 194°
2026-04-17 11:20 -20.87673 -48.85435 33973 ft 440 kts 194°
2026-04-17 11:20 -20.93737 -48.86401 33972 ft 441 kts 194°
2026-04-17 11:21 -20.99803 -48.87376 33976 ft 441 kts 194°
2026-04-17 11:21 -21.05867 -48.88340 33975 ft 441 kts 194°
2026-04-17 11:22 -21.11890 -48.89300 33973 ft 440 kts 194°
2026-04-17 11:22 -21.17958 -48.90237 33971 ft 443 kts 191°
2026-04-17 11:23 -21.24189 -48.89773 33976 ft 459 kts 172°
2026-04-17 11:23 -21.30346 -48.87831 33981 ft 462 kts 170°
2026-04-17 11:24 -21.36511 -48.85874 33980 ft 462 kts 170°
2026-04-17 11:24 -21.42631 -48.83940 33978 ft 462 kts 170°
2026-04-17 11:25 -21.48793 -48.81984 33976 ft 462 kts 170°
2026-04-17 11:25 -21.54951 -48.80023 33975 ft 462 kts 170°
2026-04-17 11:26 -21.61115 -48.78047 33979 ft 462 kts 170°
2026-04-17 11:26 -21.67280 -48.76078 33979 ft 462 kts 170°
2026-04-17 11:27 -21.73408 -48.74119 33984 ft 462 kts 170°
2026-04-17 11:27 -21.79571 -48.72145 33980 ft 462 kts 170°
2026-04-17 11:28 -21.85737 -48.70171 33983 ft 462 kts 170°
2026-04-17 11:28 -21.91903 -48.68201 33982 ft 462 kts 170°
2026-04-17 11:29 -21.98072 -48.66229 33975 ft 462 kts 170°
2026-04-17 11:29 -22.04238 -48.64249 33983 ft 463 kts 170°
2026-04-17 11:30 -22.10407 -48.62267 33987 ft 462 kts 170°
2026-04-17 11:30 -22.16533 -48.60299 33988 ft 463 kts 170°
2026-04-17 11:31 -22.22701 -48.58306 33995 ft 463 kts 170°
2026-04-17 11:31 -22.28866 -48.56320 34002 ft 462 kts 170°
2026-04-17 11:32 -22.35034 -48.54335 34002 ft 462 kts 171°
2026-04-17 11:32 -22.41194 -48.52348 34006 ft 462 kts 171°
2026-04-17 11:33 -22.47311 -48.50371 34004 ft 462 kts 171°
2026-04-17 11:33 -22.53446 -48.48309 33998 ft 466 kts 165°
2026-04-17 11:34 -22.56372 -48.46710 33998 ft 477 kts 154°
2026-04-17 11:34 -22.59040 -48.44522 33996 ft 487 kts 143°
2026-04-17 11:34 -22.61340 -48.41789 33994 ft 497 kts 132°
2026-04-17 11:34 -22.63162 -48.38582 33989 ft 505 kts 120°
2026-04-17 11:35 -22.65606 -48.31382 33982 ft 511 kts 113°
2026-04-17 11:35 -22.67917 -48.24100 33981 ft 512 kts 113°
2026-04-17 11:36 -22.70209 -48.16854 33983 ft 512 kts 113°
2026-04-17 11:36 -22.72514 -48.09558 33990 ft 512 kts 113°
2026-04-17 11:37 -22.74788 -48.02243 34004 ft 512 kts 112°
2026-04-17 11:37 -22.77020 -47.94943 34010 ft 507 kts 117°
2026-04-17 11:38 -22.80125 -47.88134 34009 ft 503 kts 122°
2026-04-17 11:38 -22.83374 -47.81435 34009 ft 502 kts 123°
2026-04-17 11:39 -22.86639 -47.74740 34010 ft 502 kts 122°
2026-04-17 11:39 -22.89881 -47.68035 34012 ft 502 kts 122°
2026-04-17 11:40 -22.93096 -47.61328 34013 ft 501 kts 122°
2026-04-17 11:40 -22.96288 -47.54661 33951 ft 502 kts 122°
2026-04-17 11:41 -22.97904 -47.51292 32826 ft 504 kts 122°
2026-04-17 11:41 -22.99539 -47.47890 31177 ft 512 kts 121°
2026-04-17 11:41 -23.01187 -47.44461 30101 ft 510 kts 120°
2026-04-17 11:41 -23.02817 -47.41054 29230 ft 507 kts 120°
2026-04-17 11:42 -23.04442 -47.37655 28371 ft 506 kts 120°
2026-04-17 11:42 -23.06065 -47.34266 27536 ft 506 kts 120°
2026-04-17 11:42 -23.07690 -47.30868 26729 ft 508 kts 120°
2026-04-17 11:42 -23.09313 -47.27471 25950 ft 505 kts 120°
2026-04-17 11:43 -23.10879 -47.24133 25192 ft 501 kts 116°
2026-04-17 11:43 -23.11870 -47.20520 24444 ft 501 kts 98°
2026-04-17 11:43 -23.11845 -47.16763 23718 ft 498 kts 81°
2026-04-17 11:43 -23.10823 -47.13205 22884 ft 493 kts 63°
2026-04-17 11:44 -23.08919 -47.10143 22053 ft 488 kts 47°
2026-04-17 11:44 -23.06632 -47.07435 21235 ft 485 kts 46°
2026-04-17 11:44 -23.04340 -47.04756 20442 ft 482 kts 46°
2026-04-17 11:44 -23.02060 -47.02100 19668 ft 480 kts 46°
2026-04-17 11:45 -22.99796 -46.99454 18918 ft 477 kts 46°
2026-04-17 11:45 -22.97551 -46.96820 18159 ft 474 kts 46°
2026-04-17 11:45 -22.95323 -46.94201 17427 ft 468 kts 46°
2026-04-17 11:45 -22.93194 -46.91695 16797 ft 447 kts 46°
2026-04-17 11:46 -22.91137 -46.89269 16186 ft 427 kts 46°
2026-04-17 11:46 -22.89316 -46.87125 15623 ft 411 kts 46°
2026-04-17 11:46 -22.87419 -46.84879 15038 ft 396 kts 50°
2026-04-17 11:46 -22.85954 -46.82452 14803 ft 373 kts 62°
2026-04-17 11:47 -22.84742 -46.80045 14688 ft 358 kts 61°
2026-04-17 11:47 -22.83556 -46.77711 14573 ft 350 kts 61°
2026-04-17 11:47 -22.82393 -46.75422 14454 ft 345 kts 61°
2026-04-17 11:47 -22.81306 -46.73123 14327 ft 338 kts 69°
2026-04-17 11:48 -22.80600 -46.70713 14145 ft 334 kts 75°
2026-04-17 11:48 -22.79953 -46.68322 14010 ft 328 kts 74°
2026-04-17 11:48 -22.79307 -46.65960 14014 ft 327 kts 74°
2026-04-17 11:48 -22.78680 -46.63632 14009 ft 326 kts 77°
2026-04-17 11:49 -22.78356 -46.61207 14023 ft 324 kts 88°
2026-04-17 11:49 -22.78222 -46.58769 14027 ft 325 kts 88°
2026-04-17 11:49 -22.78088 -46.56329 14025 ft 324 kts 88°
2026-04-17 11:49 -22.77952 -46.53892 14024 ft 324 kts 88°
2026-04-17 11:50 -22.77955 -46.51455 14025 ft 323 kts 98°
2026-04-17 11:50 -22.78315 -46.49060 14029 ft 322 kts 101°
2026-04-17 11:50 -22.78693 -46.46666 14025 ft 322 kts 101°
2026-04-17 11:50 -22.79067 -46.44270 14030 ft 322 kts 101°
2026-04-17 11:51 -22.79468 -46.41885 14022 ft 321 kts 106°
2026-04-17 11:51 -22.80217 -46.39651 14031 ft 320 kts 116°
2026-04-17 11:51 -22.81138 -46.37457 14025 ft 320 kts 116°
2026-04-17 11:51 -22.82266 -46.35403 14022 ft 316 kts 134°
2026-04-17 11:52 -22.83971 -46.33950 14028 ft 311 kts 156°
2026-04-17 11:52 -22.86026 -46.33287 13932 ft 309 kts 177°
2026-04-17 11:52 -22.88138 -46.33501 13605 ft 305 kts 199°
2026-04-17 11:52 -22.90020 -46.34513 13324 ft 301 kts 213°
2026-04-17 11:53 -22.91798 -46.35709 13056 ft 300 kts 212°
2026-04-17 11:53 -22.93570 -46.36887 12790 ft 298 kts 212°
2026-04-17 11:53 -22.95340 -46.38057 12525 ft 297 kts 212°
2026-04-17 11:53 -22.97101 -46.39220 12263 ft 295 kts 212°
2026-04-17 11:54 -22.98828 -46.40364 12005 ft 294 kts 212°
2026-04-17 11:54 -23.00573 -46.41519 11744 ft 293 kts 212°
2026-04-17 11:54 -23.02312 -46.42668 11486 ft 292 kts 212°
2026-04-17 11:54 -23.04043 -46.43813 11226 ft 291 kts 212°
2026-04-17 11:55 -23.05770 -46.44956 10968 ft 290 kts 212°
2026-04-17 11:55 -23.07488 -46.46096 10709 ft 289 kts 212°
2026-04-17 11:55 -23.09200 -46.47231 10452 ft 288 kts 212°
2026-04-17 11:55 -23.10906 -46.48363 10197 ft 287 kts 211°
2026-04-17 11:56 -23.12606 -46.49490 9950 ft 286 kts 212°
2026-04-17 11:56 -23.14300 -46.50616 9672 ft 285 kts 212°
2026-04-17 11:56 -23.15986 -46.51740 9420 ft 284 kts 212°
2026-04-17 11:56 -23.17658 -46.52854 9219 ft 277 kts 212°
2026-04-17 11:57 -23.19275 -46.53927 9092 ft 268 kts 212°
2026-04-17 11:57 -23.20712 -46.54881 8904 ft 262 kts 212°
2026-04-17 11:57 -23.22247 -46.55926 8763 ft 259 kts 213°
2026-04-17 11:57 -23.23755 -46.56994 8515 ft 258 kts 214°
2026-04-17 11:58 -23.25227 -46.58049 8249 ft 257 kts 214°
2026-04-17 11:58 -23.26722 -46.59120 7979 ft 257 kts 214°
2026-04-17 11:58 -23.28208 -46.60182 7797 ft 254 kts 214°
2026-04-17 11:58 -23.29689 -46.61235 7618 ft 254 kts 214°
2026-04-17 11:59 -23.31164 -46.62284 7445 ft 253 kts 214°
2026-04-17 11:59 -23.32636 -46.63331 7264 ft 253 kts 214°
2026-04-17 11:59 -23.34108 -46.64378 7083 ft 252 kts 214°
2026-04-17 11:59 -23.35572 -46.65419 6904 ft 251 kts 214°
2026-04-17 12:00 -23.37034 -46.66458 6726 ft 251 kts 214°
2026-04-17 12:00 -23.38490 -46.67496 6545 ft 250 kts 215°
2026-04-17 12:00 -23.39940 -46.68530 6353 ft 250 kts 214°
2026-04-17 12:00 -23.41422 -46.69518 6179 ft 250 kts 206°
2026-04-17 12:01 -23.43068 -46.70042 6001 ft 252 kts 188°
2026-04-17 12:01 -23.44841 -46.69947 5789 ft 266 kts 166°
2026-04-17 12:01 -23.46504 -46.69067 5564 ft 265 kts 142°
2026-04-17 12:01 -23.47658 -46.67568 5319 ft 255 kts 117°
2026-04-17 12:02 -23.48153 -46.65762 5063 ft 248 kts 94°
2026-04-17 12:02 -23.47980 -46.63921 4839 ft 245 kts 73°
2026-04-17 12:02 -23.47506 -46.62163 4605 ft 236 kts 72°
2026-04-17 12:02 -23.47055 -46.60497 4447 ft 223 kts 72°
2026-04-17 12:03 -23.46640 -46.58953 4345 ft 203 kts 72°
2026-04-17 12:03 -23.46252 -46.57511 4109 ft 194 kts 72°
2026-04-17 12:03 -23.45883 -46.56141 3868 ft 184 kts 72°
2026-04-17 12:03 -23.45531 -46.54830 3649 ft 175 kts 72°
2026-04-17 12:04 -23.45202 -46.53609 3428 ft 162 kts 72°
2026-04-17 12:04 -23.44897 -46.52479 3219 ft 154 kts 72°
2026-04-17 12:04 -23.44602 -46.51384 3014 ft 148 kts 73°
2026-04-17 12:04 -23.44315 -46.50318 2823 ft 145 kts 73°
2026-04-17 12:05 -23.44038 -46.49267 2617 ft 144 kts 73°
2026-04-17 12:05 -23.43765 -46.48256 2467 ft 131 kts 72°
2026-04-17 12:05 -23.43531 -46.47412 2459 ft 98 kts 73°
2026-04-17 12:05 -23.43387 -46.46937 2467 ft 28 kts 46°
2026-04-17 12:06 -23.43265 -46.46819 2462 ft 23 kts 46°
2026-04-17 12:06 -23.43143 -46.46711 2458 ft 21 kts
2026-04-17 12:06 -23.43024 -46.46747 2454 ft 18 kts 347°
2026-04-17 12:06 -23.42901 -46.46777 2458 ft 18 kts 352°
2026-04-17 12:07 -23.42790 -46.46819 2463 ft 16 kts 319°
2026-04-17 12:07 -23.42790 -46.46926 2455 ft 14 kts 252°
2026-04-17 12:07 -23.42799 -46.46960 2458 ft 13 kts 254°